| time (UTC) | temp F | wind direction | speed MPH | gust MPH | rain 1hr in | rain 24hr in | rain mn in | humidity % | barometer mb |
| 20260510190500 | 76 | 74 | 4.0 | 7.0 | 0.00 | 0.00 | 0.00 | 72 | 1011.7 |
| 20260510185428 | 76 | 42 | 0.0 | 1.0 | 0.00 | 0.00 | 0.00 | 76 | 1011.8 |
| 20260510184420 | 76 | 80 | 3.0 | 6.0 | 0.00 | 0.00 | 0.00 | 75 | 1012.0 |
| 20260510183428 | 77 | 32 | 3.0 | 6.0 | 0.00 | 0.00 | 0.00 | 74 | 1012.0 |
| 20260510182422 | 76 | 54 | 2.0 | 3.0 | 0.00 | 0.00 | 0.00 | 78 | 1012.1 |
| 20260510181428 | 75 | 58 | 3.0 | 7.0 | 0.00 | 0.00 | 0.00 | 78 | 1012.1 |
| 20260510180421 | 75 | 348 | 5.0 | 8.0 | 0.00 | 0.00 | 0.00 | 79 | 1012.2 |
| 20260510175428 | 74 | 293 | 3.0 | 6.0 | 0.00 | 0.00 | 0.00 | 81 | 1012.2 |
| 20260510174422 | 73 | 54 | 1.0 | 2.0 | 0.00 | 0.00 | 0.00 | 83 | 1012.5 |
| 20260510173436 | 72 | 358 | 3.0 | 3.0 | 0.00 | 0.00 | 0.00 | 84 | 1012.7 |
| 20260510172424 | 72 | 46 | 2.0 | 3.0 | 0.00 | 0.00 | 0.00 | 85 | 1012.5 |
| 20260510171436 | 72 | 313 | 1.0 | 2.0 | 0.00 | 0.00 | 0.00 | 87 | 1012.8 |
| 20260510170424 | 71 | 325 | 1.0 | 2.0 | 0.00 | 0.00 | 0.00 | 88 | 1012.8 |
| 20260510165220 | 70 | 88 | 1.0 | 1.0 | 0.00 | 0.00 | 0.00 | 89 | 1012.9 |
| 20260510164226 | 70 | 109 | 0.0 | 1.0 | 0.00 | 0.00 | 0.00 | 90 | 1013.1 |
| 20260510163216 | 70 | 154 | 1.0 | 2.0 | 0.00 | 0.00 | 0.00 | 92 | 1013.0 |
| 20260510162220 | 69 | 0.0 | 0.0 | 0.00 | 0.00 | 0.00 | 93 | 1012.9 | |
| 20260510161226 | 68 | 75 | 1.0 | 1.0 | 0.00 | 0.00 | 0.00 | 92 | 1012.8 |
| 20260510160216 | 68 | 32 | 1.0 | 2.0 | 0.00 | 0.00 | 0.00 | 92 | 1012.8 |
| 20260510155239 | 68 | 68 | 2.0 | 3.0 | 0.00 | 0.00 | 0.00 | 92 | 1012.9 |
| 20260510154226 | 68 | 110 | 2.0 | 3.0 | 0.00 | 0.00 | 0.00 | 93 | 1013.0 |
| 20260510153217 | 68 | 49 | 2.0 | 2.0 | 0.00 | 0.00 | 0.00 | 93 | 1012.8 |
| 20260510152224 | 67 | 109 | 2.0 | 3.0 | 0.00 | 0.00 | 0.00 | 94 | 1012.9 |
| 20260510151217 | 67 | 104 | 2.0 | 3.0 | 0.00 | 0.00 | 0.00 | 94 | 1013.0 |
| 20260510150246 | 67 | 66 | 3.0 | 4.0 | 0.00 | 0.00 | 0.00 | 95 | 1013.0 |
| 20260510145240 | 67 | 30 | 1.0 | 3.0 | 0.00 | 0.00 | 0.00 | 96 | 1013.0 |
| 20260510144229 | 66 | 45 | 4.0 | 4.0 | 0.00 | 0.00 | 0.00 | 97 | 1012.7 |
| 20260510143220 | 66 | 49 | 2.0 | 3.0 | 0.00 | 0.00 | 0.00 | 98 | 1012.8 |
| 20260510142249 | 66 | 102 | 1.0 | 2.0 | 0.00 | 0.00 | 0.00 | 98 | 1012.9 |
| 20260510141221 | 65 | 59 | 2.0 | 3.0 | 0.00 | 0.00 | 0.00 | 99 | 1012.7 |
| 20260510140228 | 65 | 61 | 1.0 | 3.0 | 0.00 | 0.00 | 0.00 | 99 | 1012.7 |
| 20260510135220 | 64 | 28 | 0.0 | 1.0 | 0.00 | 0.00 | 0.00 | 99 | 1012.5 |
| 20260510134226 | 64 | 61 | 1.0 | 1.0 | 0.00 | 0.00 | 0.00 | 99 | 1012.5 |
| 20260510133217 | 64 | 48 | 1.0 | 2.0 | 0.00 | 0.00 | 0.00 | 99 | 1012.4 |
| 20260510132222 | 64 | 0.0 | 0.0 | 0.00 | 0.00 | 0.00 | 99 | 1012.5 | |
| 20260510131228 | 63 | 0.0 | 0.0 | 0.00 | 0.00 | 0.00 | 99 | 1012.4 | |
| 20260510130218 | 63 | 30 | 2.0 | 3.0 | 0.00 | 0.00 | 0.00 | 99 | 1012.2 |
| 20260510125226 | 62 | 41 | 1.0 | 2.0 | 0.00 | 0.00 | 0.00 | 99 | 1012.2 |
| 20260510124217 | 62 | 52 | 1.0 | 1.0 | 0.00 | 0.00 | 0.00 | 99 | 1011.9 |
| 20260510123226 | 62 | 0.0 | 0.0 | 0.00 | 0.00 | 0.00 | 99 | 1011.9 | |
| 20260510122238 | 62 | 70 | 1.0 | 2.0 | 0.00 | 0.00 | 0.00 | 99 | 1011.7 |
| 20260510121226 | 62 | 0.0 | 0.0 | 0.00 | 0.00 | 0.00 | 99 | 1011.9 | |
| 20260510120217 | 62 | 0.0 | 0.0 | 0.00 | 0.00 | 0.00 | 99 | 1011.6 | |
| 20260510115246 | 62 | 0.0 | 0.0 | 0.00 | 0.00 | 0.00 | 99 | 1011.3 | |
| 20260510114217 | 61 | 0.0 | 0.0 | 0.00 | 0.00 | 0.00 | 99 | 1011.3 | |
| 20260510113224 | 61 | 0.0 | 0.0 | 0.00 | 0.00 | 0.00 | 99 | 1011.3 | |
| 20260510112215 | 61 | 0.0 | 0.0 | 0.00 | 0.00 | 0.00 | 99 | 1011.0 | |
| 20260510111223 | 61 | 0.0 | 0.0 | 0.00 | 0.00 | 0.00 | 99 | 1010.6 | |
| 20260510110216 | 60 | 0.0 | 0.0 | 0.00 | 0.00 | 0.00 | 99 | 1010.4 | |
| 20260510105222 | 60 | 0.0 | 0.0 | 0.00 | 0.00 | 0.00 | 99 | 1010.2 | |
| 20260510104249 | 61 | 0.0 | 0.0 | 0.00 | 0.00 | 0.00 | 99 | 1009.9 | |
| 20260510103231 | 61 | 51 | 1.0 | 2.0 | 0.00 | 0.00 | 0.00 | 99 | 1009.8 |
| 20260510102243 | 61 | 58 | 1.0 | 2.0 | 0.00 | 0.00 | 0.00 | 99 | 1009.7 |
| 20260510101216 | 61 | 0.0 | 0.0 | 0.00 | 0.00 | 0.00 | 99 | 1009.6 | |
| 20260510100305 | 62 | 0.0 | 0.0 | 0.00 | 0.00 | 0.00 | 99 | 1009.4 | |
| 20260510095216 | 62 | 0.0 | 0.0 | 0.00 | 0.00 | 0.00 | 99 | 1009.5 | |
| 20260510094246 | 62 | 0.0 | 0.0 | 0.00 | 0.00 | 0.00 | 99 | 1009.3 | |
| 20260510093240 | 62 | 100 | 1.0 | 2.0 | 0.00 | 0.00 | 0.00 | 99 | 1009.4 |
| 20260510092228 | 62 | 0.0 | 0.0 | 0.00 | 0.00 | 0.00 | 99 | 1009.1 | |
| 20260510091241 | 62 | 65 | 0.0 | 1.0 | 0.00 | 0.00 | 0.00 | 99 | 1008.8 |
| 20260510090228 | 62 | 64 | 1.0 | 1.0 | 0.00 | 0.00 | 0.00 | 99 | 1008.8 |
| 20260510085221 | 62 | 64 | 1.0 | 2.0 | 0.00 | 0.01 | 0.00 | 99 | 1008.8 |
| 20260510084247 | 62 | 64 | 0.0 | 1.0 | 0.00 | 0.02 | 0.00 | 99 | 1008.6 |
| 20260510083220 | 62 | 64 | 1.0 | 2.0 | 0.00 | 0.04 | 0.00 | 98 | 1008.6 |
| 20260510082228 | 63 | 64 | 1.0 | 2.0 | 0.00 | 0.04 | 0.00 | 98 | 1008.3 |
| 20260510081221 | 63 | 64 | 1.0 | 1.0 | 0.00 | 0.04 | 0.00 | 98 | 1008.4 |
| 20260510080227 | 63 | 64 | 2.0 | 2.0 | 0.00 | 0.04 | 0.00 | 98 | 1008.4 |
| 20260510075219 | 63 | 64 | 1.0 | 1.0 | 0.00 | 0.04 | 0.00 | 98 | 1008.4 |
| 20260510074226 | 64 | 64 | 0.0 | 1.0 | 0.00 | 0.04 | 0.00 | 98 | 1008.3 |
| 20260510073218 | 63 | 0.0 | 0.0 | 0.00 | 0.04 | 0.00 | 98 | 1008.2 | |
| 20260510072225 | 63 | 0.0 | 0.0 | 0.00 | 0.04 | 0.00 | 98 | 1008.3 | |
| 20260510071218 | 63 | 0.0 | 0.0 | 0.00 | 0.04 | 0.00 | 98 | 1008.2 | |
| 20260510070225 | 63 | 0.0 | 0.0 | 0.00 | 0.04 | 0.00 | 98 | 1008.4 | |
| 20260510065237 | 62 | 0.0 | 0.0 | 0.00 | 0.04 | 0.00 | 98 | 1008.4 | |
| 20260510064223 | 62 | 0.0 | 0.0 | 0.00 | 0.04 | 0.00 | 97 | 1008.6 | |
| 20260510063256 | 62 | 0.0 | 0.0 | 0.00 | 0.04 | 0.00 | 97 | 1008.7 | |
| 20260510062223 | 62 | 0.0 | 0.0 | 0.00 | 0.04 | 0.00 | 97 | 1008.8 | |
| 20260510061217 | 62 | 0.0 | 0.0 | 0.00 | 0.04 | 0.00 | 96 | 1008.7 | |
| 20260510060225 | 62 | 0.0 | 0.0 | 0.00 | 0.04 | 0.00 | 96 | 1009.0 | |
| 20260510055218 | 62 | 0.0 | 0.0 | 0.00 | 0.04 | 0.00 | 96 | 1008.9 | |
| 20260510054224 | 62 | 0.0 | 0.0 | 0.00 | 0.04 | 0.00 | 96 | 1009.1 | |
| 20260510053227 | 63 | 0.0 | 0.0 | 0.00 | 0.04 | 0.00 | 96 | 1009.0 | |
| 20260510052227 | 63 | 0.0 | 0.0 | 0.00 | 0.04 | 0.00 | 96 | 1008.9 | |
| 20260510051229 | 63 | 0.0 | 0.0 | 0.00 | 0.04 | 0.00 | 96 | 1008.9 | |
| 20260510050218 | 64 | 0.0 | 0.0 | 0.00 | 0.04 | 0.00 | 96 | 1009.0 | |
| 20260510045221 | 64 | 0.0 | 0.0 | 0.00 | 0.04 | 0.04 | 95 | 1009.1 | |
| 20260510044223 | 64 | 0.0 | 0.0 | 0.00 | 0.04 | 0.04 | 95 | 1009.2 | |
| 20260510043225 | 64 | 0.0 | 0.0 | 0.00 | 0.04 | 0.04 | 95 | 1009.0 | |
| 20260510042226 | 65 | 0.0 | 0.0 | 0.00 | 0.04 | 0.04 | 95 | 1009.1 | |
| 20260510041227 | 65 | 0.0 | 0.0 | 0.00 | 0.04 | 0.04 | 95 | 1009.1 | |
| 20260510040227 | 65 | 0.0 | 0.0 | 0.00 | 0.04 | 0.04 | 95 | 1009.3 | |
| 20260510035231 | 66 | 0.0 | 0.0 | 0.00 | 0.04 | 0.04 | 95 | 1009.1 | |
| 20260510034230 | 66 | 0.0 | 0.0 | 0.00 | 0.04 | 0.04 | 95 | 1009.4 | |
| 20260510033216 | 66 | 153 | 1.0 | 1.0 | 0.00 | 0.04 | 0.04 | 95 | 1009.3 |
| 20260510032341 | 66 | 153 | 1.0 | 1.0 | 0.00 | 0.04 | 0.04 | 95 | 1009.4 |
| 20260510032217 | 66 | 153 | 0.0 | 1.0 | 0.00 | 0.04 | 0.04 | 95 | 1009.3 |
| 20260510031320 | 66 | 0.0 | 0.0 | 0.00 | 0.04 | 0.04 | 95 | 1009.5 | |
| 20260510031241 | 66 | 0.0 | 0.0 | 0.00 | 0.04 | 0.04 | 95 | 1009.5 | |
| 20260510030319 | 66 | 0.0 | 0.0 | 0.00 | 0.04 | 0.04 | 94 | 1009.4 | |
| 20260510030222 | 67 | 0.0 | 0.0 | 0.00 | 0.04 | 0.04 | 94 | 1009.3 | |
| 20260510025317 | 67 | 153 | 1.0 | 2.0 | 0.00 | 0.04 | 0.04 | 94 | 1009.2 |
| 20260510025220 | 67 | 153 | 1.0 | 1.0 | 0.00 | 0.04 | 0.04 | 94 | 1009.2 |
| 20260510024324 | 67 | 153 | 0.0 | 1.0 | 0.00 | 0.04 | 0.04 | 94 | 1009.4 |